User: anonymous   Login
Location: Enborne
(51.3833°N, 1.3667°W)
Time: 21:52:38
(UTC+00:00)
Language:

Spot 2 Rocket - Orbit

View from above orbital plane
View from above orbital plane
View from above satellite
View from above satellite

Ground track
Ground track

The orbit data is extracted from the following two-line orbital elements,

1 20443U 90005H   20327.93843002 +.00000026 +00000-0 +23301-4 0  9991
2 20443 098.5578 029.3511 0009693 226.6069 133.4312 14.38105788614896
Epoch (UTC): 22 November 2020 22:31:20
Eccentricity: 0.0009693
inclination: 98.5578°
perigee height: 758 km
apogee height: 771 km
right ascension of ascending node: 29.3511°
argument of perigee: 226.6069°
revolutions per day: 14.38105788
mean anomaly at epoch: 133.4312°
orbit number at epoch: 61489

The dashed part of the orbit path shows where the satellite is in the earth's shadow,  

DLR